Chicago, IL

8:23 AM CDT on June 29, 2017 (GMT -0500)
Chicago-O'Hare International

Weather History for KORD - June, 2013

Change the Weather History Date:

Monday, June 24, 2013

  Actual Average Record
Temperature  
Mean Temperature 78 °F 72 °F  
Max Temperature 89 °F 82 °F 97 °F (1988)
Min Temperature 67 °F 61 °F 46 °F (1986)
Degree Days  
Heating Degree Days 0 1  
Month to date heating degree days 43 47  
Since 1 June heating degree days 43 47  
Since 1 July heating degree days 6174 6339  
Cooling Degree Days 13 7  
Month to date cooling degree days 107 117  
Year to date cooling degree days 191 171  
Since 1 June cooling degree days 107 117  
Growing Degree Days 28 (Base 50)    
Moisture  
Dew Point 67 °F    
Average Humidity 72    
Maximum Humidity 93    
Minimum Humidity 51    
Precipitation  
Precipitation 0.18 in 0.11 in 2.31 in (1950)
Month to date precipitation 3.80 2.80  
Year to date precipitation 26.03 15.88  
Snow  
Snow 0.00 in 0.00 in 0.00 in ()
Month to date snowfall 0.0 0.0  
Since 1 June snowfall 0.0 0.0  
Since 1 July snowfall 30.1 36.3  
Snow Depth 0.00 in    
Sea Level Pressure  
Sea Level Pressure 29.96 in    
Wind  
Wind Speed 10 mph (SW)    
Max Wind Speed 18 mph    
Max Gust Speed 52 mph    
Visibility 8 miles    
Events Rain , Thunderstorm    
T = Trace of Precipitation, MM = Missing Value Source: NWS Daily Summary

Daily Weather History Graph

Daily Weather History Graph

Search for Another Location

Airport or City:

Trip Planner

Search our weather history database for the weather conditions in past years. The results will help you decide how hot, cold, wet, or windy it might be!

Date:

Astronomy

Jun. 24, 2013 Rise Set
Actual Time 5:17 AM CDT 8:31 PM CDT
Civil Twilight 4:42 AM CDT 9:05 PM CDT
Nautical Twilight 3:58 AM CDT 9:49 PM CDT
Astronomical Twilight 3:04 AM CDT 10:43 PM CDT
Moon 9:30 PM CDT (6/24) 6:46 AM CDT (6/24)
Length of Visible Light 16h 22m
Length of Day
15h 14m
Full, 98% of the Moon is Illuminated
Jun 24
Full
Jun 29
Last Quarter
Jul 8
New
Jul 15
First Quarter
Jul 22
Full

Hourly Weather History & Observations

Time (CDT) Temp. Heat Index Dew Point Humidity Pressure Visibility Wind Dir Wind Speed Gust Speed Precip Events Conditions
12:51 AM 75.0 °F - 70.0 °F 84% 29.97 in 10.0 mi South 11.5 mph - N/A   Overcast
1:51 AM 73.9 °F - 69.1 °F 85% 29.96 in 10.0 mi SSW 8.1 mph - N/A   Overcast
2:51 AM 72.0 °F - 69.1 °F 91% 29.96 in 10.0 mi SSW 6.9 mph - N/A   Mostly Cloudy
3:51 AM 72.0 °F - 69.1 °F 91% 29.97 in 10.0 mi South 9.2 mph - N/A   Mostly Cloudy
4:51 AM 72.0 °F - 69.1 °F 91% 29.97 in 6.0 mi SSW 9.2 mph - N/A   Mostly Cloudy
5:00 AM 71.6 °F - 69.8 °F 94% 29.99 in 4.0 mi SSW 10.4 mph - N/A   Overcast
5:19 AM 71.6 °F - 69.8 °F 94% 30.00 in 4.0 mi SSW 10.4 mph - N/A   Overcast
5:51 AM 72.0 °F - 69.1 °F 91% 30.01 in 4.0 mi SW 10.4 mph - N/A   Mostly Cloudy
6:10 AM 69.8 °F - 68.0 °F 94% 30.03 in 5.0 mi SW 11.5 mph - N/A   Overcast
6:51 AM 72.0 °F - 66.9 °F 84% 30.00 in 9.0 mi WSW 11.5 mph - N/A   Overcast
7:51 AM 73.0 °F - 66.9 °F 81% 30.03 in 10.0 mi WSW 11.5 mph - N/A   Overcast
8:51 AM 72.0 °F - 64.9 °F 78% 30.04 in 10.0 mi WSW 8.1 mph - N/A   Overcast
9:51 AM 72.0 °F - 64.9 °F 78% 30.05 in 10.0 mi WSW 9.2 mph - 0.00 in Rain Light Rain
10:51 AM 73.0 °F - 64.9 °F 76% 30.04 in 10.0 mi West 11.5 mph - 0.00 in   Overcast
12:51 PM 80.1 °F 81.5 °F 63.0 °F 56% 29.92 in 10.0 mi SSW 4.6 mph - N/A   Scattered Clouds
1:51 PM 84.9 °F 86.1 °F 64.0 °F 49% 29.95 in 10.0 mi SSW 12.7 mph - N/A   Mostly Cloudy
2:51 PM 84.9 °F 86.1 °F 64.0 °F 49% 29.94 in 10.0 mi WSW 10.4 mph - N/A   Mostly Cloudy
3:51 PM 87.1 °F 92.8 °F 71.1 °F 59% 29.93 in 10.0 mi SW 15.0 mph - N/A   Mostly Cloudy
4:51 PM 89.1 °F 94.1 °F 70.0 °F 53% 29.94 in 10.0 mi SW 13.8 mph - N/A   Mostly Cloudy
5:51 PM 87.1 °F 93.6 °F 72.0 °F 61% 29.92 in 10.0 mi SW 18.4 mph - N/A   Mostly Cloudy
5:56 PM 80.6 °F 83.9 °F 69.8 °F 70% 30.01 in 2.0 mi WSW 38.0 mph 51.8 mph 0.00 in Rain , Thunderstorm Light Thunderstorms and Rain
5:58 PM 77.0 °F - 69.8 °F 78% 30.02 in 1.2 mi WSW 26.5 mph 51.8 mph 0.00 in Rain , Thunderstorm Light Thunderstorms and Rain
6:04 PM 68.0 °F - 64.4 °F 88% 29.97 in 1.5 mi SW 17.3 mph 54.1 mph 0.11 in Rain , Thunderstorm Heavy Thunderstorms and Rain
6:15 PM 69.8 °F - 66.2 °F 88% 29.94 in 5.0 mi South 10.4 mph - 0.16 in Rain Light Rain
6:51 PM 69.1 °F - 64.9 °F 87% 29.90 in 10.0 mi WSW 13.8 mph 18.4 mph 0.16 in Rain Light Rain
7:51 PM 68.0 °F - 66.0 °F 93% 29.87 in 10.0 mi WSW 9.2 mph - 0.02 in   Overcast
8:51 PM 68.0 °F - 64.9 °F 90% 29.88 in 10.0 mi WSW 6.9 mph - N/A   Overcast
9:51 PM 68.0 °F - 64.9 °F 90% 29.92 in 10.0 mi Variable 4.6 mph - N/A   Overcast
10:51 PM 68.0 °F - 64.9 °F 90% 29.94 in 10.0 mi SW 6.9 mph - N/A   Overcast
11:51 PM 68.0 °F - 64.9 °F 90% 29.94 in 10.0 mi WSW 5.8 mph - N/A   Mostly Cloudy